Algona, IA

5:32 PM CDT on March 23, 2017 (GMT -0500)
Algona Municipal

Weather History for KAXA - December, 2013

Change the Weather History Date:

Tuesday, December 17, 2013

  Actual Average Record
Temperature  
Mean Temperature 24 °F -  
Max Temperature 32 °F 26 °F 46 °F (2001)
Min Temperature 15 °F 12 °F -13 °F (2016)
Degree Days  
Heating Degree Days 42    
Moisture  
Dew Point 18 °F    
Average Humidity 77    
Maximum Humidity 93    
Minimum Humidity 60    
Precipitation  
Precipitation 0.00 in - - ()
Sea Level Pressure  
Sea Level Pressure 30.08 in    
Wind  
Wind Speed 15 mph (West)    
Max Wind Speed 25 mph    
Max Gust Speed 38 mph    
Visibility 10 miles    
Events      
Averages and records for this station are not official NWS values.
T = Trace of Precipitation, MM = Missing Value Source: NWS Daily Summary

Daily Weather History Graph

Daily Weather History Graph

Search for Another Location

Airport or City:

Trip Planner

Search our weather history database for the weather conditions in past years. The results will help you decide how hot, cold, wet, or windy it might be!

Date:

Astronomy

Dec. 17, 2013 Rise Set
Actual Time 7:43 AM CST 4:43 PM CST
Civil Twilight 7:10 AM CST 5:15 PM CST
Nautical Twilight 6:34 AM CST 5:51 PM CST
Astronomical Twilight 6:00 AM CST 6:26 PM CST
Moon 5:25 PM CST (12/17) 7:38 AM CST (12/17)
Length of Visible Light 10h 05m
Length of Day
9h 00m
Full, 100% of the Moon is Illuminated
Dec 17
Full
Dec 25
Last Quarter
Jan 1
New
Jan 7
First Quarter
Jan 15
Full

Hourly Weather History & Observations

Time (CST) Temp. Windchill Dew Point Humidity Pressure Visibility Wind Dir Wind Speed Gust Speed Precip Events Conditions
12:15 AM 23.0 °F 10.1 °F 21.2 °F 93% 30.00 in 10.0 mi WSW 15.0 mph - N/A   Clear
12:35 AM 21.2 °F 8.3 °F 17.6 °F 86% 29.99 in 10.0 mi WSW 13.8 mph - N/A   Clear
12:55 AM 21.2 °F 8.3 °F 19.4 °F 93% 30.01 in 10.0 mi WSW 13.8 mph - N/A   Clear
1:15 AM 23.0 °F 11.1 °F 19.4 °F 86% 30.00 in 10.0 mi WSW 12.7 mph - N/A   Partly Cloudy
1:35 AM 21.2 °F 8.9 °F 19.4 °F 93% 30.00 in 10.0 mi WSW 12.7 mph - N/A   Clear
1:55 AM 19.4 °F 6.6 °F 17.6 °F 93% 30.00 in 10.0 mi WSW 12.7 mph - N/A   Clear
2:15 AM 24.8 °F 11.9 °F 21.2 °F 86% 30.00 in 10.0 mi West 16.1 mph - N/A   Clear
2:35 AM 23.0 °F 10.1 °F 19.4 °F 86% 30.01 in 10.0 mi West 15.0 mph - N/A   Partly Cloudy
2:55 AM 24.8 °F 11.5 °F 19.4 °F 80% 30.02 in 10.0 mi West 17.3 mph - N/A   Clear
3:15 AM 26.6 °F 13.8 °F 23.0 °F 86% 30.02 in 10.0 mi West 17.3 mph - N/A   Mostly Cloudy
3:35 AM 28.4 °F 15.8 °F 23.0 °F 80% 30.01 in 10.0 mi West 18.4 mph - N/A   Overcast
3:55 AM 28.4 °F 16.2 °F 23.0 °F 80% 30.01 in 10.0 mi West 17.3 mph - N/A   Overcast
4:15 AM 28.4 °F 15.4 °F 23.0 °F 80% 30.00 in 10.0 mi West 19.6 mph - N/A   Overcast
4:35 AM 28.4 °F 16.2 °F 23.0 °F 80% 30.00 in 10.0 mi WNW 17.3 mph - N/A   Overcast
4:55 AM 28.4 °F 17.5 °F 24.8 °F 86% 30.00 in 10.0 mi WNW 13.8 mph 19.6 mph N/A   Overcast
5:15 AM 28.4 °F 17.0 °F 24.8 °F 86% 30.01 in 10.0 mi West 15.0 mph - N/A   Overcast
5:35 AM 30.2 °F 17.4 °F 24.8 °F 80% 30.01 in 10.0 mi WNW 20.7 mph 28.8 mph N/A   Overcast
5:55 AM 32.0 °F 19.5 °F 26.6 °F 80% 30.01 in 10.0 mi West 21.9 mph 28.8 mph N/A   Overcast
6:15 AM 32.0 °F 20.8 °F 26.6 °F 80% 30.01 in 10.0 mi WNW 17.3 mph 25.3 mph N/A   Overcast
6:35 AM 32.0 °F 21.6 °F 24.8 °F 75% 30.02 in 10.0 mi WNW 15.0 mph 25.3 mph N/A   Scattered Clouds
6:55 AM 30.2 °F 19.3 °F 23.0 °F 75% 30.03 in 10.0 mi WNW 15.0 mph 24.2 mph N/A   Clear
7:15 AM 28.4 °F 17.0 °F 24.8 °F 86% 30.04 in 10.0 mi WNW 15.0 mph - N/A   Mostly Cloudy
7:35 AM 30.2 °F 19.3 °F 26.6 °F 86% 30.04 in 10.0 mi WNW 15.0 mph - N/A   Mostly Cloudy
7:55 AM 28.4 °F 17.5 °F 24.8 °F 86% 30.05 in 10.0 mi WNW 13.8 mph - N/A   Mostly Cloudy
8:15 AM 26.6 °F 14.7 °F 23.0 °F 86% 30.05 in 10.0 mi WNW 15.0 mph - N/A   Partly Cloudy
8:35 AM 28.4 °F 17.0 °F 23.0 °F 80% 30.06 in 10.0 mi WNW 15.0 mph 23.0 mph N/A   Clear
8:55 AM 28.4 °F 16.6 °F 23.0 °F 80% 30.07 in 10.0 mi WNW 16.1 mph 23.0 mph N/A   Clear
9:15 AM 28.4 °F 15.8 °F 21.2 °F 74% 30.08 in 10.0 mi WNW 18.4 mph 24.2 mph N/A   Clear
9:35 AM 28.4 °F 16.6 °F 21.2 °F 74% 30.09 in 10.0 mi WNW 16.1 mph 24.2 mph N/A   Clear
9:55 AM 28.4 °F 16.6 °F 19.4 °F 69% 30.09 in 10.0 mi WNW 16.1 mph 21.9 mph N/A   Clear
10:15 AM 28.4 °F 15.8 °F 21.2 °F 74% 30.10 in 10.0 mi WNW 18.4 mph - N/A   Clear
10:35 AM 28.4 °F 16.2 °F 21.2 °F 74% 30.11 in 10.0 mi WNW 17.3 mph 24.2 mph N/A   Clear
10:55 AM 30.2 °F 18.1 °F 19.4 °F 64% 30.11 in 10.0 mi WNW 18.4 mph - N/A   Clear
11:15 AM 30.2 °F 18.1 °F 21.2 °F 69% 30.10 in 10.0 mi WNW 18.4 mph - N/A   Clear
11:35 AM 30.2 °F 17.4 °F 19.4 °F 64% 30.11 in 9.0 mi WNW 20.7 mph 36.8 mph N/A   Clear
11:55 AM 30.2 °F 17.1 °F 19.4 °F 64% 30.11 in 7.0 mi NW 21.9 mph 33.4 mph N/A   Light Freezing Rain
12:15 PM 30.2 °F 16.2 °F 19.4 °F 64% 30.11 in 9.0 mi NW 25.3 mph 38.0 mph N/A   Light Freezing Rain
12:35 PM 30.2 °F 16.2 °F 17.6 °F 60% 30.10 in 10.0 mi NW 25.3 mph 32.2 mph N/A   Clear
12:55 PM 28.4 °F 14.4 °F 17.6 °F 64% 30.10 in 10.0 mi NW 23.0 mph 33.4 mph N/A   Clear
1:15 PM 28.4 °F 15.1 °F 17.6 °F 64% 30.10 in 10.0 mi NW 20.7 mph 31.1 mph N/A   Clear
1:35 PM 28.4 °F 14.1 °F 17.6 °F 64% 30.10 in 9.0 mi NW 24.2 mph 32.2 mph N/A   Clear
1:55 PM 28.4 °F 14.1 °F 17.6 °F 64% 30.10 in 10.0 mi NW 24.2 mph 32.2 mph N/A   Clear
2:15 PM 28.4 °F 16.6 °F 17.6 °F 64% 30.11 in 10.0 mi WNW 16.1 mph 24.2 mph N/A   Clear
2:35 PM 28.4 °F 15.8 °F 17.6 °F 64% 30.11 in 10.0 mi WNW 18.4 mph 26.5 mph N/A   Clear
2:55 PM 28.4 °F 16.2 °F 17.6 °F 64% 30.11 in 10.0 mi WNW 17.3 mph 24.2 mph N/A   Clear
3:15 PM 26.6 °F 14.3 °F 17.6 °F 69% 30.12 in 10.0 mi WNW 16.1 mph 24.2 mph N/A   Clear
3:35 PM 26.6 °F 15.7 °F 17.6 °F 69% 30.13 in 6.0 mi WNW 12.7 mph - N/A   Haze
3:55 PM 26.6 °F 15.2 °F 17.6 °F 69% 30.13 in 10.0 mi WNW 13.8 mph 20.7 mph N/A   Clear
4:15 PM 26.6 °F 14.7 °F 17.6 °F 69% 30.13 in 10.0 mi WNW 15.0 mph - N/A   Clear
4:35 PM 24.8 °F 12.9 °F 17.6 °F 74% 30.13 in 10.0 mi WNW 13.8 mph - N/A   Clear
4:55 PM 23.0 °F 12.4 °F 15.8 °F 74% 30.13 in 10.0 mi WNW 10.4 mph - N/A   Clear
5:15 PM 21.2 °F 10.1 °F 14.0 °F 74% 30.12 in 10.0 mi WNW 10.4 mph - N/A   Clear
5:35 PM 23.0 °F 11.1 °F 15.8 °F 74% 30.13 in 10.0 mi West 12.7 mph - N/A   Clear
5:55 PM 19.4 °F 6.6 °F 14.0 °F 80% 30.13 in 10.0 mi West 12.7 mph - N/A   Clear
6:15 PM 19.4 °F 7.9 °F 14.0 °F 80% 30.12 in 10.0 mi West 10.4 mph - N/A   Clear
6:35 PM 21.2 °F 10.1 °F 14.0 °F 74% 30.13 in 10.0 mi West 10.4 mph - N/A   Clear
6:55 PM 19.4 °F 6.0 °F 12.2 °F 74% 30.13 in 10.0 mi West 13.8 mph - N/A   Clear
7:15 PM 17.6 °F 3.2 °F 12.2 °F 79% 30.13 in 10.0 mi West 15.0 mph - N/A   Clear
7:35 PM 17.6 °F 4.3 °F 12.2 °F 79% 30.14 in 10.0 mi West 12.7 mph - N/A   Clear
7:55 PM 17.6 °F 5.0 °F 12.2 °F 79% 30.14 in 10.0 mi West 11.5 mph - N/A   Clear
8:15 PM 17.6 °F 5.0 °F 12.2 °F 79% 30.13 in 10.0 mi West 11.5 mph - N/A   Clear
8:35 PM 15.8 °F 2.7 °F 12.2 °F 86% 30.13 in 10.0 mi West 11.5 mph - N/A   Clear
8:55 PM 17.6 °F 5.7 °F 12.2 °F 79% 30.13 in 10.0 mi West 10.4 mph - N/A   Clear
9:15 PM 17.6 °F 5.0 °F 12.2 °F 79% 30.12 in 10.0 mi West 11.5 mph - N/A   Clear
9:35 PM 17.6 °F 6.4 °F 14.0 °F 86% 30.12 in 10.0 mi WSW 9.2 mph - N/A   Clear
9:55 PM 19.4 °F 6.6 °F 14.0 °F 80% 30.12 in 10.0 mi West 12.7 mph - N/A   Clear
10:15 PM 15.8 °F 4.2 °F 12.2 °F 86% 30.12 in 10.0 mi WSW 9.2 mph - N/A   Clear
10:35 PM 15.8 °F 6.1 °F 10.4 °F 79% 30.12 in 10.0 mi WSW 6.9 mph - N/A   Clear
10:55 PM 17.6 °F 5.7 °F 12.2 °F 79% 30.11 in 10.0 mi WSW 10.4 mph - N/A   Clear
11:15 PM 15.8 °F 3.4 °F 12.2 °F 86% 30.11 in 10.0 mi SW 10.4 mph - N/A   Clear
11:35 PM 17.6 °F 8.2 °F 12.2 °F 79% 30.09 in 10.0 mi SW 6.9 mph - N/A   Clear
11:55 PM 15.8 °F 7.2 °F 10.4 °F 79% 30.07 in 10.0 mi SSW 5.8 mph - N/A   Clear